Tracking 29487 objects as of 11-Sep-2024
HD Live streaming from Space Station
objects crossing your sky now

FENGYUN 1C DEB

Track FENGYUN 1C DEB now!
10-day predictions


NORAD ID: 29871
Int'l Code: 1999-025FR
Perigee: 728.3 km
Apogee: 820.9 km
Inclination: 98.9 °
Period: 100.2 minutes
Semi major axis: 7145 km
RCS: 0.051 m2 (small)
Launch date: May 10, 1999
Source: People's Republic of China (PRC)
Launch site: Taiyaun Space Center, China (TSC)

Note: This is SATELLITE DEBRIS
Your satellite tracking list
Your tracking list is empty




NASA's NSSDC Master Catalog

Two Line Element Set (TLE):
1 29871U 99025FR  24254.71079109  .00013631  00000-0  44695-2 0  9997
2 29871  98.9309 180.8442 0064771  24.5784  45.3324 14.37288604921072
Source of the keplerian elements: AFSPC